Location: Ferintosh
(52.7647°N, 112.9692°W)
Time: 19:31:26
(UTC+00:00)

Explorer 7 - Pass Details

Date: 30 May 2024
Orbit: 466 x 622 km, 50.3° (Epoch: 16 June)

Event Time Altitude Azimuth Distance (km) Brightness Sun altitude
Rises 07:02:13 0° 272° (W) 2,540 10.3 -15.1°
Reaches altitude 10° 07:04:23 10° 268° (W) 1,678 9.3 -15.2°
Maximum altitude 07:08:05 53° 191° (S) 623 6.7 -15.2°
Drops below altitude 10° 07:11:57 10° 114° (ESE) 1,757 9.1 -15.3°
Enters shadow 07:12:48 - 112° (ESE) 2,094 9.5 -15.3°
Sets 07:14:15 0° 110° (ESE) 2,674 - -15.3°
